Location: Mound City (historical)
(34.0564°N, 117.2656°W)
Time: 01:43:56
(UTC+00:00)

CZ-3 R/B - Pass Details

Date: 08 September 2024
Orbit: 506 x 10057 km, 28.3° (Epoch: 10 October)

Event Time Altitude Azimuth Distance (km) Brightness Sun altitude
Exits shadow 13:04:42 - 254° (WSW) 8,333 5.6 -5.6°
Reaches altitude 10° 13:08:42 10° 253° (WSW) 7,109 5.3 -4.8°
Maximum altitude 13:25:28 57° 180° (S) 1,659 2.7 -1.3°
Drops below altitude 10° 13:30:54 10° 101° (E) 2,472 5.3 -0.2°
Sets 13:32:35 0° 96° (E) 3,117 6.3 0.1°
